Powrót do katalogu

GEESAT 4-05

AktywnyNaukaLEO
NORAD 65123·PAYLOAD·🇨🇳 China

Wystrzelony Aug 8, 2025 z Yellow Sea Launch Area

Loading…

Następne Przeloty (najbliższe 24 godziny)

TLE

ŚwieżeSource: Space-Track

Epoka: Sep 14, 2026, 21:40 UTC

1 65123U 25170E   26257.90315287  .00001213  00000-0  17762-3 0  9992
2 65123  49.9947  73.6804 0007538 304.9957  55.0273 14.82385332 60354

Śledź GEESAT 4-05 w czasie rzeczywistym z AllMySat

Download on the App Store